Temp
-7 -7 -7 -6 -6 -6 -6 -6 -6 -5 -5 -4 -4 -5 -4 -3 -3 -2 -2 -2 -1 -1 -1 -0 0 1 1 2 2 3 3 3 3 4 4 4 5 4 4 4 3 3 4 4
-7 -7 -6 -6 -6 -5 -5 -6 -6 -6 -6 -5 -4 -4 -4 -4 -3 -3 -2 -2 -1 -1 -1 -2 -0 -0 0 1 2 3 3 4 3 3 3 3 4 4 3 4 2 2 2 3
-8 -8 -8 -7 -5 -5 -5 -5 -5 -6 -4 -6 -6 -5 -5 -5 -4 -4 -3 -2 -2 -2 -2 -2 -2 -2 -1 -0 0 0 2 3 4 3 3 2 2 1 3 3 3 3 2 2
-9 -9 -8 -6 -6 -6 -6 -6 -6 -6 -5 -7 -6 -6 -5 -5 -5 -4 -4 -3 -3 -3 -3 -3 -3 -2 -3 -2 -1 -1 0 1 0 0 -0 0 1 1 1 2 2 2 2 2
-9 -8 -8 -7 -6 -7 -7 -6 -6 -6 -6 -7 -6 -6 -5 -6 -6 -5 -5 -4 -4 -4 -3 -2 -2 -3 -3 -3 -3 -2 -2 -1 -2 -1 -1 -1 0 1 2 1 1 2 2 1
-10 -9 -8 -7 -7 -7 -7 -7 -7 -7 -7 -7 -6 -7 -6 -6 -7 -7 -7 -7 -6 -6 -5 -4 -3 -4 -4 -3 -3 -3 -2 -2 -3 -2 -2 -1 -1 0 1 -0 -0 -0 0 -1
-10 -9 -9 -8 -8 -8 -8 -7 -8 -8 -8 -8 -8 -8 -8 -7 -7 -8 -7 -7 -7 -6 -5 -4 -4 -4 -4 -3 -3 -3 -3 -3 -2 -2 -2 -1 -1 -0 0 -1 -2 -1 -1 -1
-10 -10 -9 -8 -8 -8 -9 -9 -9 -8 -9 -9 -9 -8 -9 -8 -8 -8 -8 -8 -8 -7 -6 -5 -4 -4 -4 -4 -4 -4 -4 -3 -3 -3 -3 -3 -2 -2 -2 -1 -2 -2 -1 -2
-9 -9 -9 -9 -9 -9 -9 -9 -9 -9 -9 -9 -9 -9 -9 -8 -8 -8 -8 -8 -8 -8 -7 -6 -5 -5 -4 -4 -5 -5 -5 -4 -4 -3 -3 -3 -3 -3 -3 -3 -2 -3 -3 -3
-9 -9 -9 -9 -9 -9 -9 -9 -9 -9 -9 -9 -9 -9 -9 -9 -8 -8 -8 -9 -8 -8 -7 -5 -5 -5 -4 -4 -4 -5 -5 -5 -4 -4 -4 -4 -4 -4 -4 -4 -4 -4 -4 -5
-9 -9 -9 -9 -9 -9 -9 -9 -9 -9 -9 -9 -9 -9 -9 -8 -8 -8 -9 -9 -9 -9 -8 -6 -6 -5 -5 -5 -5 -5 -5 -5 -5 -6 -5 -4 -5 -5 -5 -5 -5 -4 -4 -4
-10 -10 -10 -10 -10 -10 -9 -9 -9 -9 -9 -10 -10 -9 -8 -8 -8 -9 -9 -9 -9 -9 -7 -7 -6 -6 -5 -5 -5 -5 -5 -5 -6 -5 -4 -4 -4 -4 -4 -4 -4 -4 -4 -3
-10 -10 -10 -10 -10 -10 -10 -10 -10 -10 -10 -10 -10 -10 -9 -9 -10 -10 -10 -9 -9 -8 -8 -7 -7 -6 -5 -5 -5 -5 -6 -5 -6 -5 -4 -4 -4 -4 -4 -4 -4 -4 -3 -3
-10 -10 -10 -10 -10 -10 -10 -10 -10 -11 -11 -11 -11 -10 -10 -10 -10 -10 -10 -8 -8 -8 -8 -7 -6 -7 -6 -6 -5 -6 -6 -6 -6 -5 -5 -4 -4 -4 -4 -4 -4 -4 -4 -3
-10 -10 -10 -10 -10 -10 -10 -10 -11 -11 -11 -11 -11 -11 -10 -10 -10 -10 -9 -8 -8 -8 -8 -8 -6 -6 -6 -6 -6 -6 -6 -7 -6 -5 -5 -5 -5 -5 -4 -4 -4 -4 -4 -3
-10 -10 -10 -10 -10 -10 -10 -11 -11 -11 -11 -11 -11 -11 -11 -10 -10 -10 -10 -9 -8 -8 -8 -8 -7 -7 -7 -7 -7 -7 -7 -7 -6 -6 -6 -6 -5 -5 -5 -5 -4 -4 -4 -4
-10 -10 -10 -10 -10 -10 -11 -11 -11 -11 -11 -11 -11 -11 -11 -10 -10 -10 -10 -10 -9 -8 -8 -8 -8 -8 -8 -8 -8 -8 -7 -7 -6 -6 -6 -6 -5 -5 -5 -5 -5 -5 -5 -5
-10 -10 -10 -10 -10 -10 -10 -11 -11 -11 -11 -11 -11 -11 -11 -10 -10 -10 -11 -11 -10 -10 -10 -10 -10 -10 -10 -8 -7 -7 -7 -6 -6 -6 -6 -6 -6 -5 -6 -6 -6 -6 -6 -5
-10 -10 -10 -10 -10 -10 -11 -10 -10 -11 -11 -11 -11 -11 -11 -10 -10 -11 -11 -10 -10 -10 -9 -9 -9 -9 -8 -8 -8 -7 -7 -7 -7 -7 -7 -6 -6 -6 -6 -6 -6 -6 -6 -6
-10 -10 -10 -10 -10 -10 -11 -11 -11 -11 -11 -11 -11 -11 -11 -11 -11 -11 -11 -10 -10 -10 -9 -9 -9 -9 -8 -8 -8 -8 -7 -7 -7 -7 -6 -6 -6 -6 -6 -6 -6 -7 -6 -7
-10 -10 -10 -10 -10 -10 -11 -11 -11 -11 -11 -11 -11 -11 -11 -11 -11 -11 -11 -10 -10 -10 -9 -9 -9 -9 -8 -8 -8 -8 -7 -7 -7 -7 -7 -7 -7 -7 -7 -7 -7 -7 -7 -7
-11 -11 -11 -10 -10 -10 -11 -11 -11 -11 -11 -11 -11 -11 -11 -11 -11 -11 -11 -10 -10 -10 -9 -9 -9 -9 -9 -8 -8 -8 -8 -8 -8 -7 -7 -7 -7 -7 -7 -7 -7 -7 -8 -8
-12 -11 -11 -11 -11 -11 -11 -11 -11 -11 -11 -11 -11 -11 -11 -11 -11 -11 -11 -11 -10 -10 -10 -9 -9 -9 -9 -9 -9 -8 -8 -8 -8 -8 -8 -8 -8 -8 -8 -8 -8 -8 -8 -8
-12 -12 -11 -11 -11 -11 -11 -11 -11 -12 -12 -12 -12 -12 -12 -12 -12 -12 -11 -11 -11 -10 -10 -10 -10 -9 -9 -9 -9 -9 -9 -9 -9 -9 -9 -8 -8 -8 -8 -8 -8 -9 -9 -9
-12 -12 -12 -12 -12 -12 -12 -12 -12 -12 -12 -12 -12 -12 -12 -12 -12 -12 -12 -12 -12 -11 -11 -10 -10 -10 -10 -10 -10 -9 -9 -9 -9 -9 -9 -9 -9 -9 -9 -9 -9 -9 -10 -10
-13 -13 -13 -13 -12 -12 -12 -12 -12 -12 -12 -12 -12 -12 -12 -12 -13 -13 -13 -13 -12 -12 -11 -11 -11 -11 -10 -10 -10 -10 -10 -10 -10 -10 -10 -10 -10 -9 -9 -10 -10 -10 -10 -10
-14 -13 -13 -13 -13 -13 -13 -13 -13 -12 -12 -12 -12 -12 -12 -13 -13 -13 -13 -13 -13 -13 -12 -12 -12 -11 -11 -11 -11 -11 -11 -10 -10 -10 -10 -10 -10 -10 -10 -11 -11 -11 -11 -11
Height
2917 2918 2919 2921 2921 2922 2921 2924 2920 2919 2920 2918 2917 2922 2921 2921 2922 2922 2921 2921 2921 2915 2913 2915 2911 2914 2919 2921 2920 2922 2924 2924 2924 2925 2929 2931 2932 2933 2935 2938 2941 2944 2947 2949
2912 2913 2915 2914 2913 2914 2915 2915 2912 2912 2909 2914 2916 2915 2918 2917 2918 2916 2914 2908 2907 2901 2901 2905 2901 2907 2907 2907 2910 2912 2913 2914 2914 2915 2916 2919 2919 2921 2922 2925 2928 2931 2935 2936
2910 2910 2910 2906 2903 2905 2904 2905 2907 2906 2904 2906 2910 2910 2911 2910 2910 2909 2903 2898 2900 2898 2898 2896 2895 2893 2897 2897 2899 2901 2901 2902 2903 2905 2905 2907 2908 2910 2912 2915 2917 2920 2924 2926
2908 2908 2906 2900 2899 2899 2900 2900 2901 2900 2899 2902 2904 2905 2904 2901 2899 2896 2897 2891 2892 2891 2890 2895 2885 2884 2885 2884 2886 2889 2890 2890 2891 2895 2897 2898 2900 2901 2903 2904 2906 2907 2912 2913
2905 2904 2901 2898 2896 2896 2896 2896 2896 2895 2895 2896 2896 2896 2895 2893 2891 2889 2887 2885 2887 2886 2885 2880 2873 2872 2875 2877 2878 2879 2881 2881 2886 2888 2890 2891 2890 2891 2893 2894 2895 2896 2901 2904
2901 2901 2898 2893 2893 2894 2894 2893 2893 2893 2892 2891 2890 2888 2889 2888 2886 2885 2882 2880 2879 2879 2876 2873 2866 2864 2866 2869 2870 2871 2872 2873 2876 2880 2882 2883 2882 2883 2884 2885 2887 2886 2889 2896
2895 2897 2892 2890 2892 2892 2894 2895 2889 2889 2888 2886 2884 2883 2879 2880 2877 2876 2873 2871 2869 2865 2862 2860 2859 2858 2856 2858 2859 2862 2865 2865 2869 2872 2874 2874 2875 2876 2877 2879 2883 2882 2883 2889
2892 2893 2891 2887 2888 2890 2889 2886 2885 2885 2883 2881 2879 2876 2873 2871 2868 2866 2863 2860 2857 2852 2849 2849 2849 2848 2845 2847 2850 2853 2857 2858 2861 2864 2867 2867 2870 2871 2871 2874 2879 2877 2878 2885
2888 2887 2885 2885 2886 2885 2883 2882 2881 2880 2878 2876 2872 2869 2865 2862 2859 2856 2853 2849 2846 2840 2835 2835 2836 2834 2834 2838 2840 2845 2849 2851 2855 2857 2860 2864 2867 2868 2870 2871 2874 2876 2879 2885
2884 2884 2884 2883 2883 2882 2880 2878 2877 2874 2871 2868 2863 2860 2856 2853 2849 2845 2842 2839 2835 2829 2823 2819 2819 2817 2819 2824 2830 2837 2842 2845 2847 2850 2854 2858 2862 2864 2867 2871 2873 2876 2880 2887
2880 2881 2881 2881 2880 2878 2876 2873 2870 2868 2863 2859 2855 2850 2847 2841 2837 2834 2830 2827 2822 2815 2807 2801 2799 2799 2804 2810 2821 2828 2834 2837 2842 2846 2850 2854 2859 2861 2865 2871 2874 2878 2881 2886
2877 2877 2876 2876 2875 2872 2868 2864 2861 2856 2853 2851 2846 2839 2835 2830 2827 2824 2819 2815 2809 2801 2793 2788 2786 2785 2792 2804 2812 2819 2826 2832 2838 2843 2848 2852 2856 2860 2864 2867 2871 2876 2881 2885
2873 2872 2871 2869 2866 2863 2859 2855 2851 2848 2845 2840 2837 2831 2826 2822 2819 2815 2809 2804 2797 2790 2784 2780 2784 2789 2794 2802 2809 2813 2819 2828 2835 2840 2845 2849 2853 2858 2863 2867 2870 2874 2879 2883
2869 2867 2866 2864 2860 2857 2853 2849 2846 2843 2840 2836 2832 2829 2824 2820 2815 2806 2798 2794 2788 2784 2780 2780 2786 2791 2795 2800 2807 2814 2819 2826 2833 2839 2843 2847 2853 2857 2861 2866 2870 2874 2878 2883
2865 2863 2861 2859 2856 2852 2847 2844 2842 2839 2835 2833 2830 2826 2821 2816 2808 2798 2792 2790 2788 2785 2783 2786 2786 2792 2794 2797 2805 2814 2820 2824 2833 2839 2844 2849 2854 2858 2862 2866 2870 2875 2880 2884
2862 2861 2858 2855 2852 2848 2844 2841 2837 2835 2832 2829 2826 2823 2820 2814 2806 2799 2794 2793 2793 2791 2790 2790 2790 2793 2798 2804 2809 2814 2822 2828 2835 2840 2845 2849 2854 2858 2862 2867 2872 2876 2879 2884
2860 2859 2856 2853 2849 2846 2842 2837 2833 2830 2828 2825 2822 2820 2817 2812 2808 2804 2801 2798 2797 2797 2797 2798 2799 2800 2804 2809 2816 2822 2827 2833 2838 2842 2846 2850 2854 2858 2862 2866 2871 2876 2881 2884
2859 2857 2854 2850 2847 2843 2840 2835 2831 2826 2825 2823 2821 2819 2816 2812 2810 2808 2806 2804 2804 2804 2803 2804 2804 2808 2812 2817 2822 2827 2831 2836 2839 2844 2848 2852 2856 2860 2865 2870 2874 2877 2880 2883
2857 2855 2852 2848 2844 2841 2838 2834 2829 2825 2823 2823 2821 2819 2816 2813 2812 2811 2810 2810 2810 2811 2811 2812 2813 2816 2819 2822 2826 2830 2834 2838 2842 2845 2849 2853 2858 2862 2866 2870 2873 2876 2879 2881
2854 2852 2849 2846 2843 2840 2837 2833 2829 2826 2824 2822 2821 2819 2818 2816 2815 2814 2813 2814 2815 2815 2817 2818 2819 2821 2823 2826 2829 2832 2836 2839 2843 2847 2851 2854 2858 2861 2865 2869 2872 2874 2876 2876
2851 2849 2847 2845 2842 2839 2836 2833 2830 2827 2824 2823 2822 2821 2820 2818 2816 2816 2817 2818 2818 2819 2820 2821 2822 2824 2827 2829 2831 2834 2837 2840 2844 2848 2851 2855 2858 2861 2864 2866 2867 2867 2867 2868
2848 2847 2845 2843 2840 2838 2835 2833 2830 2827 2825 2823 2821 2821 2820 2818 2816 2816 2817 2818 2819 2820 2821 2823 2824 2826 2828 2831 2833 2836 2839 2842 2845 2848 2850 2853 2855 2857 2858 2859 2859 2860 2861 2861
2845 2843 2842 2840 2838 2836 2834 2832 2830 2828 2826 2824 2822 2820 2819 2817 2816 2815 2816 2818 2819 2821 2822 2823 2824 2826 2828 2831 2833 2836 2838 2841 2843 2845 2847 2849 2850 2852 2853 2854 2855 2856 2855 2855
2840 2839 2838 2837 2835 2833 2832 2831 2829 2827 2825 2823 2821 2820 2819 2817 2817 2816 2816 2818 2819 2821 2822 2823 2824 2826 2828 2830 2832 2834 2837 2838 2840 2842 2844 2845 2847 2849 2850 2850 2850 2849 2850 2849
2835 2833 2832 2831 2831 2829 2829 2828 2826 2825 2823 2822 2821 2819 2818 2818 2817 2816 2816 2816 2817 2820 2821 2822 2824 2826 2828 2829 2831 2833 2835 2837 2838 2840 2841 2842 2843 2844 2845 2845 2845 2844 2844 2842
2828 2827 2826 2825 2825 2824 2823 2823 2822 2821 2820 2819 2818 2818 2817 2816 2816 2815 2815 2814 2814 2815 2817 2819 2821 2823 2825 2827 2829 2830 2832 2833 2834 2835 2837 2838 2839 2839 2840 2840 2840 2840 2838 2836
2819 2819 2818 2818 2818 2818 2817 2817 2817 2816 2815 2815 2815 2814 2814 2813 2813 2813 2813 2813 2813 2813 2814 2815 2817 2819 2821 2823 2825 2826 2828 2829 2831 2832 2832 2833 2834 2835 2835 2836 2836 2835 2833 2831
Wind_Speed
12 10 11 13 12 10 13 17 11 9 18 17 18 20 19 20 22 22 22 23 25 24 25 27 26 27 33 34 31 31 28 28 29 27 33 39 42 43 46 43 40 39 38 35
20 15 12 17 19 19 20 22 25 27 27 24 24 24 27 27 26 25 24 23 28 29 31 30 28 31 32 34 35 33 33 28 30 28 26 31 40 46 39 40 40 32 39 31
6 7 8 12 21 17 21 21 22 21 28 23 25 25 22 23 25 27 28 26 31 33 33 33 31 30 31 36 38 40 40 35 28 26 24 29 33 28 38 40 38 41 38 36
6 5 4 10 11 12 14 13 14 17 16 16 17 19 22 25 26 25 25 23 25 29 31 33 31 31 32 31 37 39 41 39 27 22 19 20 29 32 32 35 37 36 42 37
4 8 14 20 20 18 16 18 15 13 10 15 19 22 23 16 20 26 29 30 31 32 31 32 35 35 30 31 33 34 38 34 29 24 25 23 25 20 22 28 30 32 41 37
8 3 4 4 2 5 8 14 12 13 16 18 21 23 25 25 25 24 26 28 31 34 35 36 36 38 32 31 33 32 30 33 27 29 21 17 19 18 18 20 21 20 28 27
13 7 11 13 15 15 7 10 7 10 13 18 23 25 29 27 27 28 31 34 36 39 41 39 36 37 38 33 32 32 24 26 28 30 28 24 20 17 17 15 16 21 25 28
9 6 9 10 11 10 6 8 12 16 19 23 26 30 32 33 34 35 36 38 41 44 45 42 38 37 40 34 33 30 25 28 21 22 23 18 16 13 12 11 11 11 15 23
10 4 8 5 4 9 14 16 18 22 24 28 34 36 37 38 40 41 42 43 43 46 48 48 42 37 33 33 34 27 28 25 27 23 22 20 19 17 15 13 12 16 21 22
7 5 5 10 9 13 18 23 26 29 35 37 40 42 45 45 46 46 45 43 44 45 46 47 42 39 36 37 36 35 27 27 26 24 20 19 22 20 19 21 21 21 20 19
12 12 15 17 18 23 27 31 34 36 38 39 40 43 43 45 44 44 43 42 42 46 48 41 32 32 33 39 38 32 26 28 24 21 20 20 22 22 22 20 19 19 20 19
18 19 20 21 23 28 31 33 33 35 35 32 34 40 39 40 39 37 36 38 42 46 32 30 12 12 28 32 36 34 32 31 27 22 22 21 23 20 20 21 19 17 16 16
15 18 22 25 25 27 29 30 30 27 26 31 27 26 21 19 21 27 35 40 40 40 28 10 11 14 23 27 33 27 29 30 28 24 22 20 21 21 19 18 19 18 16 15
17 18 19 21 24 25 28 26 20 20 21 19 21 17 18 23 30 38 40 26 17 17 6 15 18 19 29 33 36 28 32 31 27 26 25 19 17 19 20 20 18 18 18 15
13 16 18 21 21 21 18 17 16 17 16 14 14 16 21 27 32 23 10 5 5 7 8 13 21 20 23 31 31 35 26 24 23 20 21 21 19 19 19 19 19 17 16 15
11 16 19 18 17 18 17 18 19 18 16 16 17 18 21 26 24 18 11 10 9 12 18 16 22 26 28 27 22 23 28 18 16 15 16 17 19 21 20 20 18 15 12 10
12 16 17 16 15 16 18 21 20 18 15 16 15 15 15 23 8 13 14 15 14 14 17 20 23 27 27 24 22 20 18 17 17 19 19 20 20 19 18 16 13 11 9 7
12 14 15 16 15 15 16 20 20 17 10 12 11 12 14 17 7 12 10 12 13 13 14 15 17 20 21 21 19 18 18 19 20 20 20 20 19 17 16 14 12 9 7 6
13 15 17 17 17 16 17 19 20 13 6 8 7 8 12 11 7 4 11 9 9 9 11 12 14 15 16 18 18 18 17 17 18 18 18 17 16 14 12 10 8 7 7 7
14 16 17 18 18 17 16 17 17 11 7 7 6 9 11 13 6 8 12 5 6 7 9 11 12 13 13 15 16 17 17 17 17 16 16 14 12 10 8 8 8 9 9 11
14 15 17 17 16 17 16 14 14 12 8 6 5 5 7 10 6 9 6 4 3 6 7 9 11 13 13 14 15 15 16 16 16 15 14 12 10 8 8 8 10 12 15 18
14 14 16 17 15 15 15 13 12 12 9 7 7 7 7 10 9 8 13 7 6 5 6 7 9 11 12 13 14 14 14 14 13 12 10 8 8 8 10 12 14 17 18 20
14 15 16 16 15 13 13 13 10 9 9 6 6 8 10 11 9 2 12 7 7 6 7 7 8 9 10 12 12 12 12 11 9 8 7 7 9 11 12 12 14 16 18 20
15 17 17 17 17 15 13 12 12 9 8 9 7 6 7 8 8 5 7 14 10 10 8 7 7 8 10 11 11 10 9 8 7 8 9 10 10 11 12 13 13 15 17 19
20 19 20 19 17 16 15 14 13 10 9 8 9 7 5 6 7 7 6 7 20 17 11 11 11 11 12 12 11 10 9 9 8 9 10 10 11 12 11 12 12 14 16 15
21 23 25 23 20 19 17 16 15 14 11 10 9 9 9 6 6 6 4 5 8 13 18 18 14 12 12 12 12 11 10 10 10 10 11 11 10 10 10 11 12 13 13 13
26 24 25 26 23 20 20 19 17 16 14 12 11 10 10 10 9 7 6 5 4 4 10 15 18 20 15 13 13 14 15 13 11 10 10 9 9 11 11 12 12 12 12 12
Wind_Direction
308 313 302 293 290 273 249 248 226 252 261 276 276 268 275 282 284 287 289 288 288 286 286 278 269 260 253 253 250 248 253 262 263 263 256 252 248 246 246 245 248 252 254 244
300 307 291 275 272 267 265 262 259 269 266 272 263 266 276 271 280 286 283 286 291 292 289 288 280 272 262 254 250 249 254 261 261 265 258 262 253 242 237 241 241 251 245 253
278 303 300 275 283 276 272 269 268 258 282 269 272 274 268 277 285 282 280 278 281 284 285 285 285 285 279 264 257 258 256 258 257 260 259 264 260 249 245 243 246 244 249 256
262 296 259 279 289 288 277 281 283 279 281 268 269 265 276 288 291 290 283 284 285 288 289 287 289 290 287 279 265 262 261 257 251 251 257 256 261 256 251 241 239 241 241 242
221 225 281 281 276 272 280 289 291 297 286 270 272 276 280 284 287 286 286 282 279 280 281 289 296 295 282 282 270 261 262 263 257 250 251 260 263 267 264 252 245 245 250 245
199 222 253 254 325 349 326 294 303 295 288 283 284 285 286 290 288 288 290 293 290 285 281 281 285 294 281 274 272 255 253 260 256 264 251 269 263 272 270 242 240 228 223 230
218 233 263 262 272 277 258 300 278 272 281 286 287 290 292 292 286 292 294 296 299 294 287 286 283 287 280 271 261 252 252 251 243 257 257 257 264 258 257 244 229 229 233 240
216 226 267 277 264 236 263 257 274 283 290 290 292 294 299 298 297 297 298 299 303 298 288 284 285 285 278 266 254 247 235 239 250 240 244 248 245 227 215 222 237 236 236 232
211 238 253 281 253 278 281 289 291 293 295 292 292 294 294 295 297 299 300 301 302 299 296 291 290 279 268 246 243 226 239 226 234 226 215 221 218 231 218 207 195 194 185 166
248 261 278 306 275 279 285 290 293 296 297 294 291 291 292 294 295 295 295 296 297 297 294 289 281 274 247 235 233 217 231 237 220 199 198 203 203 192 181 156 147 138 135 135
266 273 280 288 288 285 286 288 289 287 288 290 292 291 292 291 290 290 292 293 293 297 298 290 277 258 232 223 220 211 225 202 188 184 188 191 176 175 174 184 182 181 179 180
281 288 289 289 291 292 293 294 295 296 296 297 299 298 294 289 291 292 292 293 299 302 289 283 258 224 205 205 211 212 203 187 186 190 193 189 186 190 191 185 185 185 183 181
289 290 294 299 300 302 303 305 302 298 301 307 316 320 315 310 304 298 296 299 303 299 298 228 208 184 187 198 207 190 177 187 184 182 186 183 187 187 188 183 177 173 174 173
297 300 302 306 308 308 304 301 307 309 308 313 321 326 321 314 312 305 302 307 305 300 279 196 173 190 202 197 196 218 175 179 178 178 181 186 180 179 172 169 169 166 163 158
306 312 316 317 315 317 315 312 314 318 314 301 313 313 316 324 324 337 330 346 19 10 150 175 195 184 153 165 162 160 152 151 163 170 169 168 166 166 162 157 155 154 157 159
321 322 322 321 319 330 325 317 312 308 317 305 300 309 326 333 342 7 47 79 86 85 124 116 127 124 140 132 135 143 154 149 157 160 162 158 157 154 152 152 152 151 151 155
325 329 331 326 330 325 331 337 332 316 316 322 314 320 335 336 347 38 48 76 90 112 98 107 117 117 116 118 125 135 150 166 169 166 162 158 156 154 151 146 145 150 159 170
325 332 335 337 339 342 342 344 337 331 315 332 330 333 337 350 81 54 46 68 73 71 83 89 95 102 114 127 136 147 154 160 157 156 155 154 153 152 153 158 164 174 190 207
322 335 344 348 349 348 352 350 349 350 332 337 353 356 12 29 94 136 93 71 87 99 110 112 114 120 127 135 139 141 144 147 151 153 154 155 156 158 162 169 179 197 217 235
323 334 341 346 350 351 356 357 359 2 360 343 322 17 8 1 148 134 122 92 102 122 130 135 135 136 139 142 144 148 151 153 153 154 157 159 163 170 183 202 222 240 256 268
316 323 330 339 348 349 352 2 1 5 356 347 343 342 348 353 10 164 155 178 133 140 144 150 152 154 157 158 158 159 159 161 163 166 169 173 182 200 226 250 269 283 292 293
299 309 320 328 337 344 346 354 3 359 3 350 334 334 344 353 349 207 213 201 179 170 162 163 162 162 162 164 165 165 165 164 167 173 183 199 218 242 264 280 291 293 292 292
290 302 307 314 320 328 335 341 350 355 347 344 332 333 332 349 1 296 190 193 190 192 181 179 175 173 173 172 172 172 174 177 184 196 217 245 267 275 277 279 282 287 293 296
288 295 298 302 305 308 313 322 331 335 334 333 347 335 341 350 359 356 221 215 208 204 203 195 192 192 191 186 184 184 190 199 218 243 256 260 263 268 281 285 289 293 293 295
281 283 288 289 291 294 295 300 307 313 317 312 310 322 332 330 332 329 320 253 225 218 217 208 205 201 202 198 197 206 219 233 248 258 265 267 268 274 277 284 294 298 297 300
284 283 285 284 281 283 283 282 288 295 299 297 294 290 288 293 316 336 326 283 249 232 237 216 214 214 220 221 222 229 242 251 254 262 264 264 262 266 278 290 291 290 300 313
279 275 275 271 271 278 279 277 278 281 285 285 281 279 277 277 275 282 299 322 325 262 230 228 230 225 218 231 244 252 251 243 245 253 256 255 264 272 278 280 284 295 308 315